GAC704A EHAM-EGLC

Flight info

Callsign GAC704A
Flight time 0h 45m
Altitude 20000
Route IDRID L980 XAMAN
Aircraft C510/L-SDFGRWY/LB1

Departure

Time 2026-04-29 12:38
Airport Amsterdam Airport Schiphol (EHAM)

Arrival

Time 2026-04-29 13:24
Airport London City Airport (EGLC)
Time Latitude Longitude Altitude Speed Heading
2026-04-29 12:11 52.31107 4.74393 -5 ft 0 kts 274°
2026-04-29 12:27 52.31107 4.74385 -5 ft 2 kts 271°
2026-04-29 12:27 52.31107 4.74340 -5 ft 4 kts 271°
2026-04-29 12:28 52.31108 4.74286 -5 ft 4 kts 277°
2026-04-29 12:28 52.31109 4.74281 -5 ft 0 kts 287°
2026-04-29 12:28 52.31109 4.74279 -5 ft 1 kts 287°
2026-04-29 12:28 52.31112 4.74269 -5 ft 0 kts 300°
2026-04-29 12:29 52.31122 4.74257 -5 ft 5 kts 346°
2026-04-29 12:29 52.31183 4.74266 -5 ft 12 kts
2026-04-29 12:29 52.31267 4.74273 -5 ft 9 kts
2026-04-29 12:29 52.31343 4.74277 -5 ft 13 kts
2026-04-29 12:30 52.31444 4.74287 -5 ft 15 kts
2026-04-29 12:30 52.31526 4.74296 -5 ft 13 kts
2026-04-29 12:30 52.31624 4.74305 -5 ft 16 kts
2026-04-29 12:30 52.31733 4.74316 -5 ft 15 kts
2026-04-29 12:31 52.31850 4.74326 -5 ft 18 kts
2026-04-29 12:31 52.31944 4.74335 -5 ft 13 kts
2026-04-29 12:31 52.32020 4.74297 -5 ft 11 kts 294°
2026-04-29 12:31 52.32030 4.74151 -5 ft 12 kts 273°
2026-04-29 12:32 52.32038 4.74010 -6 ft 14 kts 274°
2026-04-29 12:32 52.32043 4.73855 -5 ft 12 kts 273°
2026-04-29 12:32 52.32049 4.73696 -5 ft 15 kts 272°
2026-04-29 12:32 52.32054 4.73526 -5 ft 15 kts 274°
2026-04-29 12:33 52.32097 4.73357 -5 ft 16 kts 317°
2026-04-29 12:33 52.32181 4.73228 -5 ft 19 kts 317°
2026-04-29 12:33 52.32251 4.73129 -5 ft 21 kts 318°
2026-04-29 12:33 52.32366 4.72966 -5 ft 22 kts 319°
2026-04-29 12:34 52.32483 4.72802 -5 ft 21 kts 321°
2026-04-29 12:34 52.32584 4.72659 -5 ft 20 kts 316°
2026-04-29 12:34 52.32692 4.72495 -5 ft 23 kts 312°
2026-04-29 12:34 52.32796 4.72303 -5 ft 19 kts 310°
2026-04-29 12:35 52.32889 4.72126 -5 ft 20 kts 316°
2026-04-29 12:35 52.32962 4.71993 -5 ft 14 kts 310°
2026-04-29 12:35 52.33041 4.71852 -5 ft 19 kts 311°
2026-04-29 12:35 52.33128 4.71675 -5 ft 20 kts 296°
2026-04-29 12:36 52.33128 4.71490 -5 ft 13 kts 259°
2026-04-29 12:36 52.33160 4.71368 -5 ft 13 kts 312°
2026-04-29 12:36 52.33231 4.71240 -5 ft 10 kts 310°
2026-04-29 12:36 52.33266 4.71172 -5 ft 10 kts 311°
2026-04-29 12:37 52.33327 4.71064 -6 ft 16 kts 310°
2026-04-29 12:37 52.33416 4.70955 -6 ft 15 kts 348°
2026-04-29 12:37 52.33574 4.70961 -5 ft 47 kts
2026-04-29 12:37 52.34110 4.71055 34 ft 102 kts
2026-04-29 12:38 52.34881 4.71096 347 ft 120 kts
2026-04-29 12:38 52.35725 4.71096 1097 ft 116 kts
2026-04-29 12:38 52.36531 4.71041 1862 ft 124 kts
2026-04-29 12:38 52.37440 4.70944 2573 ft 134 kts
2026-04-29 12:39 52.38428 4.70744 3209 ft 156 kts
2026-04-29 12:39 52.39600 4.70490 3701 ft 180 kts
2026-04-29 12:39 52.40853 4.70270 4552 ft 179 kts
2026-04-29 12:39 52.42081 4.70057 5411 ft 180 kts
2026-04-29 12:40 52.43354 4.69842 6206 ft 182 kts
2026-04-29 12:40 52.44609 4.69631 6979 ft 181 kts
2026-04-29 12:40 52.45827 4.68910 7554 ft 199 kts 326°
2026-04-29 12:40 52.46556 4.66951 8206 ft 208 kts 289°
2026-04-29 12:41 52.46892 4.64632 8805 ft 211 kts 278°
2026-04-29 12:41 52.46791 4.62263 9406 ft 213 kts 259°
2026-04-29 12:41 52.46636 4.59841 10002 ft 214 kts 270°
2026-04-29 12:41 52.46688 4.57389 10516 ft 217 kts 273°
2026-04-29 12:42 52.46443 4.54953 11026 ft 218 kts 247°
2026-04-29 12:42 52.45696 4.52801 11519 ft 219 kts 228°
2026-04-29 12:42 52.44541 4.51205 12030 ft 217 kts 208°
2026-04-29 12:42 52.43249 4.49899 12533 ft 219 kts 210°
2026-04-29 12:43 52.42117 4.48205 13036 ft 225 kts 231°
2026-04-29 12:43 52.41340 4.45961 13539 ft 228 kts 242°
2026-04-29 12:43 52.40592 4.43677 14080 ft 228 kts 240°
2026-04-29 12:43 52.39832 4.41387 14523 ft 231 kts 242°
2026-04-29 12:44 52.39082 4.39047 14957 ft 232 kts 242°
2026-04-29 12:44 52.38319 4.36706 15411 ft 235 kts 242°
2026-04-29 12:44 52.37549 4.34337 15854 ft 237 kts 242°
2026-04-29 12:44 52.36771 4.31964 16335 ft 236 kts 242°
2026-04-29 12:45 52.35994 4.29580 16765 ft 239 kts 242°
2026-04-29 12:45 52.35209 4.27183 17256 ft 239 kts 242°
2026-04-29 12:45 52.34423 4.24783 17730 ft 240 kts 242°
2026-04-29 12:45 52.33627 4.22352 18147 ft 244 kts 242°
2026-04-29 12:46 52.32826 4.19910 18636 ft 244 kts 243°
2026-04-29 12:46 52.32017 4.17447 19007 ft 248 kts 242°
2026-04-29 12:46 52.31155 4.15006 19427 ft 248 kts 233°
2026-04-29 12:46 52.30061 4.12814 19790 ft 250 kts 230°
2026-04-29 12:47 52.28995 4.10563 20217 ft 251 kts 232°
2026-04-29 12:47 52.27911 4.08243 20346 ft 266 kts 231°
2026-04-29 12:47 52.26729 4.05785 20351 ft 284 kts 231°
2026-04-29 12:47 52.25481 4.03176 20356 ft 299 kts 231°
2026-04-29 12:48 52.24175 4.00444 20360 ft 312 kts 231°
2026-04-29 12:48 52.22818 3.97605 20360 ft 322 kts 231°
2026-04-29 12:48 52.21420 3.94689 20348 ft 329 kts 231°
2026-04-29 12:48 52.20002 3.91735 20352 ft 332 kts 231°
2026-04-29 12:49 52.18574 3.88760 20352 ft 335 kts 231°
2026-04-29 12:49 52.17130 3.85759 20353 ft 337 kts 231°
2026-04-29 12:49 52.15722 3.82831 20353 ft 338 kts 231°
2026-04-29 12:49 52.14270 3.79823 20352 ft 338 kts 231°
2026-04-29 12:50 52.12815 3.76807 20341 ft 339 kts 231°
2026-04-29 12:50 52.11356 3.73786 20341 ft 340 kts 231°
2026-04-29 12:50 52.09894 3.70767 20349 ft 340 kts 231°
2026-04-29 12:50 52.08432 3.67746 20350 ft 340 kts 231°
2026-04-29 12:51 52.06966 3.64725 20350 ft 340 kts 231°
2026-04-29 12:51 52.05500 3.61702 20349 ft 341 kts 231°
2026-04-29 12:51 52.04032 3.58684 20350 ft 341 kts 231°
2026-04-29 12:51 52.02564 3.55666 20342 ft 341 kts 231°
2026-04-29 12:52 52.01094 3.52649 20340 ft 341 kts 231°
2026-04-29 12:52 51.99623 3.49631 20340 ft 340 kts 231°
2026-04-29 12:52 51.98232 3.46527 20340 ft 340 kts 234°
2026-04-29 12:52 51.96837 3.43426 20341 ft 340 kts 233°
2026-04-29 12:53 51.95426 3.40335 20336 ft 341 kts 232°
2026-04-29 12:53 51.94026 3.37245 20329 ft 340 kts 233°
2026-04-29 12:53 51.92634 3.34149 20329 ft 338 kts 234°
2026-04-29 12:53 51.91653 3.30705 20311 ft 338 kts 255°
2026-04-29 12:54 51.91281 3.26951 20313 ft 337 kts 265°
2026-04-29 12:54 51.91034 3.23173 20314 ft 338 kts 264°
2026-04-29 12:54 51.90634 3.19422 20313 ft 339 kts 258°
2026-04-29 12:54 51.90108 3.15705 20314 ft 338 kts 258°
2026-04-29 12:55 51.89636 3.11973 20310 ft 339 kts 260°
2026-04-29 12:55 51.89214 3.08217 20313 ft 339 kts 260°
2026-04-29 12:55 51.88765 3.04464 20313 ft 340 kts 259°
2026-04-29 12:55 51.88297 3.00718 20314 ft 340 kts 259°
2026-04-29 12:56 51.87838 2.96972 20313 ft 339 kts 259°
2026-04-29 12:56 51.87382 2.93229 20314 ft 339 kts 259°
2026-04-29 12:56 51.86923 2.89488 20314 ft 340 kts 259°
2026-04-29 12:56 51.86459 2.85730 20305 ft 341 kts 259°
2026-04-29 12:57 51.85995 2.81965 20308 ft 342 kts 259°
2026-04-29 12:57 51.85528 2.78200 20308 ft 341 kts 259°
2026-04-29 12:57 51.85061 2.74434 20309 ft 342 kts 259°
2026-04-29 12:57 51.84592 2.70669 20312 ft 342 kts 258°
2026-04-29 12:58 51.84126 2.66946 20310 ft 343 kts 259°
2026-04-29 12:58 51.83654 2.63166 20238 ft 345 kts 258°
2026-04-29 12:58 51.83172 2.59340 19996 ft 350 kts 258°
2026-04-29 12:58 51.82686 2.55467 19750 ft 353 kts 258°
2026-04-29 12:59 51.82192 2.51568 19496 ft 355 kts 259°
2026-04-29 12:59 51.81697 2.47615 19057 ft 360 kts 259°
2026-04-29 12:59 51.81372 2.43646 18610 ft 352 kts 266°
2026-04-29 12:59 51.81199 2.39757 18107 ft 343 kts 265°
2026-04-29 13:00 51.80941 2.35967 17608 ft 337 kts 262°
2026-04-29 13:00 51.80616 2.32253 17118 ft 332 kts 262°
2026-04-29 13:00 51.80331 2.28560 16633 ft 330 kts 263°
2026-04-29 13:00 51.80073 2.24897 16156 ft 327 kts 263°
2026-04-29 13:01 51.79801 2.21265 15681 ft 324 kts 262°
2026-04-29 13:01 51.79523 2.17665 15224 ft 322 kts 262°
2026-04-29 13:01 51.79248 2.14074 14768 ft 322 kts 262°
2026-04-29 13:01 51.78975 2.10490 14323 ft 321 kts 262°
2026-04-29 13:02 51.78700 2.06909 13845 ft 321 kts 262°
2026-04-29 13:02 51.78425 2.03349 13419 ft 318 kts 262°
2026-04-29 13:02 51.78153 1.99829 13028 ft 314 kts 262°
2026-04-29 13:02 51.77883 1.96354 12642 ft 311 kts 262°
2026-04-29 13:03 51.77614 1.92901 12269 ft 309 kts 262°
2026-04-29 13:03 51.77344 1.89468 11891 ft 308 kts 262°
2026-04-29 13:03 51.77075 1.86043 11512 ft 307 kts 261°
2026-04-29 13:03 51.76804 1.82630 11149 ft 306 kts 261°
2026-04-29 13:04 51.76536 1.79229 10782 ft 305 kts 262°
2026-04-29 13:04 51.76266 1.75841 10422 ft 303 kts 262°
2026-04-29 13:04 51.75998 1.72470 10051 ft 303 kts 261°
2026-04-29 13:04 51.75727 1.69102 9653 ft 302 kts 261°
2026-04-29 13:05 51.75243 1.65856 9324 ft 294 kts 242°
2026-04-29 13:05 51.74158 1.63192 9314 ft 277 kts 227°
2026-04-29 13:05 51.73032 1.60728 9312 ft 272 kts 233°
2026-04-29 13:05 51.72058 1.58107 9310 ft 272 kts 237°
2026-04-29 13:06 51.71134 1.55451 9309 ft 271 kts 237°
2026-04-29 13:06 51.70169 1.52840 9307 ft 271 kts 234°
2026-04-29 13:06 51.69196 1.50239 9306 ft 271 kts 235°
2026-04-29 13:06 51.68227 1.47611 9306 ft 276 kts 235°
2026-04-29 13:07 51.67236 1.44931 9243 ft 283 kts 236°
2026-04-29 13:07 51.66212 1.42166 9037 ft 292 kts 235°
2026-04-29 13:07 51.65160 1.39326 8832 ft 298 kts 234°
2026-04-29 13:07 51.64087 1.36435 8628 ft 303 kts 234°
2026-04-29 13:08 51.63001 1.33507 8427 ft 306 kts 235°
2026-04-29 13:08 51.61910 1.30567 8224 ft 305 kts 236°
2026-04-29 13:08 51.60831 1.27662 8022 ft 301 kts 234°
2026-04-29 13:08 51.59758 1.24792 7817 ft 298 kts 234°
2026-04-29 13:09 51.58690 1.21932 7622 ft 298 kts 236°
2026-04-29 13:09 51.57627 1.19081 7426 ft 297 kts 236°
2026-04-29 13:09 51.56567 1.16240 7232 ft 296 kts 235°
2026-04-29 13:09 51.55506 1.13409 7043 ft 296 kts 235°
2026-04-29 13:10 51.54445 1.10582 6851 ft 296 kts 235°
2026-04-29 13:10 51.53397 1.07786 6657 ft 297 kts 235°
2026-04-29 13:10 51.52330 1.04943 6408 ft 298 kts 235°
2026-04-29 13:10 51.51258 1.02094 6138 ft 298 kts 236°
2026-04-29 13:11 51.50190 0.99250 5997 ft 295 kts 235°
2026-04-29 13:11 51.49142 0.96470 6004 ft 288 kts 234°
2026-04-29 13:11 51.48175 0.93679 6011 ft 287 kts 243°
2026-04-29 13:11 51.47672 0.90581 5912 ft 290 kts 260°
2026-04-29 13:12 51.47647 0.87314 5654 ft 296 kts 275°
2026-04-29 13:12 51.47799 0.83999 5405 ft 300 kts 273°
2026-04-29 13:12 51.47906 0.80648 5158 ft 302 kts 273°
2026-04-29 13:12 51.48033 0.77270 4904 ft 305 kts 274°
2026-04-29 13:13 51.48167 0.73900 4649 ft 301 kts 274°
2026-04-29 13:13 51.48291 0.70565 4393 ft 298 kts 274°
2026-04-29 13:13 51.48413 0.67253 4137 ft 297 kts 274°
2026-04-29 13:13 51.48532 0.63976 4021 ft 289 kts 273°
2026-04-29 13:14 51.48649 0.60808 4018 ft 280 kts 273°
2026-04-29 13:14 51.48760 0.57728 4018 ft 274 kts 273°
2026-04-29 13:14 51.48868 0.54706 4015 ft 269 kts 274°
2026-04-29 13:14 51.48975 0.51707 4012 ft 271 kts 273°
2026-04-29 13:15 51.49042 0.48672 4006 ft 273 kts 266°
2026-04-29 13:15 51.48615 0.45717 4000 ft 273 kts 246°
2026-04-29 13:15 51.47741 0.43034 3996 ft 271 kts 234°
2026-04-29 13:15 51.46771 0.40437 3994 ft 272 kts 236°
2026-04-29 13:16 51.45823 0.37795 3888 ft 276 kts 235°
2026-04-29 13:16 51.44831 0.35108 3683 ft 283 kts 235°
2026-04-29 13:16 51.43839 0.32350 3489 ft 288 kts 240°
2026-04-29 13:16 51.43250 0.29242 3272 ft 295 kts 259°
2026-04-29 13:17 51.43169 0.25944 3057 ft 298 kts 274°
2026-04-29 13:17 51.43303 0.22725 2992 ft 281 kts 273°
2026-04-29 13:17 51.43386 0.19667 2997 ft 269 kts 273°
2026-04-29 13:17 51.43481 0.16725 2969 ft 261 kts 274°
2026-04-29 13:18 51.43585 0.13801 2715 ft 265 kts 275°
2026-04-29 13:18 51.43682 0.10841 2458 ft 267 kts 274°
2026-04-29 13:18 51.43776 0.07861 2204 ft 268 kts 275°
2026-04-29 13:18 51.43872 0.04881 1996 ft 266 kts 274°
2026-04-29 13:19 51.43963 0.01980 1996 ft 255 kts 275°
2026-04-29 13:19 51.44050 -0.00803 1973 ft 245 kts 276°
2026-04-29 13:19 51.44132 -0.03492 1964 ft 239 kts 276°
2026-04-29 13:19 51.44228 -0.06123 1953 ft 234 kts 278°
2026-04-29 13:20 51.44514 -0.07747 1958 ft 225 kts 301°
2026-04-29 13:20 51.45413 -0.09768 1946 ft 215 kts 322°
2026-04-29 13:20 51.46590 -0.11088 1949 ft 201 kts 344°
2026-04-29 13:20 51.47903 -0.11631 1956 ft 189 kts
2026-04-29 13:21 51.49142 -0.11256 1959 ft 178 kts 29°
2026-04-29 13:21 51.50127 -0.10160 1963 ft 171 kts 50°
2026-04-29 13:21 51.50738 -0.08547 1954 ft 169 kts 71°
2026-04-29 13:21 51.50920 -0.06685 1961 ft 171 kts 88°
2026-04-29 13:22 51.50840 -0.04775 1959 ft 171 kts 92°
2026-04-29 13:22 51.50789 -0.02838 1730 ft 181 kts 90°
2026-04-29 13:22 51.50720 -0.00709 1318 ft 199 kts 91°
2026-04-29 13:22 51.50644 0.01185 820 ft 132 kts 89°
2026-04-29 13:23 51.50633 0.02381 505 ft 92 kts 90°
2026-04-29 13:23 51.50581 0.03387 279 ft 89 kts 87°
2026-04-29 13:23 51.50559 0.04352 96 ft 84 kts 90°
2026-04-29 13:23 51.50538 0.05211 21 ft 69 kts 91°
2026-04-29 13:24 51.50522 0.05836 21 ft 37 kts 95°
2026-04-29 13:24 51.50495 0.06024 21 ft 9 kts 133°
2026-04-29 13:24 51.50444 0.06000 21 ft 9 kts 234°
2026-04-29 13:24 51.50435 0.05981 21 ft 0 kts 238°
2026-04-29 13:25 51.50428 0.05858 21 ft 8 kts 273°
2026-04-29 13:25 51.50433 0.05715 21 ft 19 kts 272°
2026-04-29 13:26 51.50436 0.05590 21 ft 1 kts 274°
2026-04-29 13:26 51.50439 0.05508 21 ft 13 kts 273°
2026-04-29 13:26 51.50450 0.05342 21 ft 11 kts 284°
2026-04-29 13:26 51.50462 0.05272 21 ft 0 kts 289°
2026-04-29 13:28 51.50454 0.05205 21 ft 12 kts 257°
2026-04-29 13:28 51.50457 0.05075 21 ft 14 kts 277°
2026-04-29 13:29 51.50463 0.04919 21 ft 10 kts 271°
2026-04-29 13:29 51.50467 0.04808 21 ft 7 kts 276°
2026-04-29 13:29 51.50461 0.04770 21 ft 4 kts 211°
2026-04-29 13:29 51.50449 0.04763 21 ft 4 kts 216°
2026-04-29 13:30 51.50446 0.04738 21 ft 0 kts 294°
2026-04-29 13:30 51.50446 0.04739 21 ft 0 kts 294°